This is the latest recevied weather packets stored in our database for station/object KO4YAW. If no packets are shown the sender has not sent any weather packets the latest 10 day(s).
| Time | Temp. | Humidity | Pressure | Rain* | Wind** | Luminosity | Snow |
|---|---|---|---|---|---|---|---|
| 1788097687 | 17.78° C | 62% | 1019.2 hPa | 0 mm | - | 65 W/m² | - |
| 1788096787 | 17.22° C | 64% | 1019.5 hPa | 0 mm | - | 57 W/m² | - |
| 1788095887 | 16.67° C | 63% | 1019.3 hPa | 0 mm | - | 34 W/m² | - |
| 1788094987 | 17.22° C | 62% | 1019.2 hPa | 0 mm | - | 22 W/m² | - |
| 1788094087 | 17.78° C | 60% | 1019 hPa | 0 mm | - | 9 W/m² | - |
| 1788093187 | 18.89° C | 55% | 1018.5 hPa | 0 mm | - | 2 W/m² | - |
| 1788092287 | 19.44° C | 52% | 1018.4 hPa | 0 mm | - | 0 W/m² | - |
| 1788091387 | 18.89° C | 53% | 1018.4 hPa | 0 mm | - | 0 W/m² | - |
| 1788090487 | 16.11° C | 64% | 1018.3 hPa | 0 mm | - | 0 W/m² | - |
| 1788089587 | 16.67° C | 64% | 1018.4 hPa | 0 mm | - | 0 W/m² | - |
| 1788088687 | 16.67° C | 64% | 1018.5 hPa | 0 mm | - | 0 W/m² | - |
| 1788087787 | 17.22° C | 64% | 1018.5 hPa | 0 mm | - | 0 W/m² | - |
| 1788086887 | 17.78° C | 60% | 1018.5 hPa | 0 mm | - | 0 W/m² | - |
| 1788085987 | 17.78° C | 60% | 1018 hPa | 0 mm | - | 0 W/m² | - |
| 1788085087 | 17.78° C | 61% | 1018.2 hPa | 0 mm | - | 0 W/m² | - |
| 1788084187 | 17.78° C | 62% | 1018.3 hPa | 0 mm | - | 0 W/m² | - |
| 1788083287 | 17.78° C | 61% | 1018.5 hPa | 0 mm | - | 0 W/m² | - |
| 1788082387 | 17.78° C | 60% | 1018.3 hPa | 0 mm | - | 0 W/m² | - |
| 1788081487 | 17.78° C | 61% | 1018.5 hPa | 0 mm | - | 0 W/m² | - |
| 1788080587 | 18.33° C | 60% | 1018.3 hPa | 0 mm | - | 0 W/m² | - |
| 1788079687 | 18.33° C | 60% | 1018.2 hPa | 0 mm | - | 0 W/m² | - |
| 1788078787 | 18.33° C | 60% | 1018.3 hPa | 0 mm | - | 0 W/m² | - |
| 1788077887 | 18.33° C | 60% | 1018.4 hPa | 0 mm | - | 0 W/m² | - |
| 1788076987 | 18.33° C | 59% | 1018.3 hPa | 0 mm | - | 0 W/m² | - |
| 1788076087 | 18.33° C | 60% | 1018.3 hPa | 0 mm | - | 0 W/m² | - |
* Rain since midnight (hover to see other rain measurements)
** Current wind speed in m/s (hover to see current wind gust speed)